Weather History for KDRM - September, 2013

Change the Weather History Date:

Wednesday, September 4, 2013

  Actual Average (KCIU) Record (KCIU)
Temperature  
Mean Temperature 59 °F -  
Max Temperature 66 °F 70 °F 86 °F (1999)
Min Temperature 52 °F 43 °F 29 °F (1984)
Degree Days  
Heating Degree Days 6    
Growing Degree Days 9 (Base 50)    
Moisture  
Dew Point 50 °F    
Average Humidity 68    
Maximum Humidity 92    
Minimum Humidity 45    
Precipitation  
Precipitation 0.00 in - - ()
Sea Level Pressure  
Sea Level Pressure 30.00 in    
Wind  
Wind Speed 6 mph (NW)    
Max Wind Speed 14 mph    
Max Gust Speed 22 mph    
Visibility 10 miles    
Events      
Averages and records for this station are not official NWS values.
T = Trace of Precipitation, MM = Missing Value Source: NWS Daily Summary

Daily Weather History Graph

Daily Weather History Graph

Search for Another Location

Airport or City:

Trip Planner

Search our weather history database for the weather conditions in past years. The results will help you decide how hot, cold, wet, or windy it might be!

Date:

Astronomy

Sep. 04, 2013 Rise Set
Actual Time 6:59 AM EDT 8:07 PM EDT
Civil Twilight 6:29 AM EDT 8:37 PM EDT
Nautical Twilight 5:52 AM EDT 9:14 PM EDT
Astronomical Twilight 5:13 AM EDT 9:53 PM EDT
Moon 6:11 AM EDT (9/4) 7:24 PM EDT (9/4)
Length of Visible Light 14h 08m
Length of Day
13h 07m
Waning Crescent, 1% of the Moon is Illuminated
Sep 4
Waning Crescent
Sep 5
New
Sep 12
First Quarter
Sep 19
Full
Sep 26
Last Quarter

Hourly Weather History & Observations

Time (EDT) Temp. Dew Point Humidity Pressure Visibility Wind Dir Wind Speed Gust Speed Precip Events Conditions
12:15 AM 61.2 °F 56.7 °F 85% 29.88 in 10.0 mi SW 6.9 mph - N/A   Clear
12:35 AM 61.5 °F 56.7 °F 84% 29.87 in 10.0 mi WSW 5.8 mph - N/A   Clear
12:55 AM 61.2 °F 56.5 °F 85% 29.88 in 10.0 mi WSW 4.6 mph - N/A   Clear
1:15 AM 60.6 °F 56.7 °F 87% 29.88 in 10.0 mi SW 3.5 mph - N/A   Clear
1:34 AM 60.1 °F 57.2 °F 90% 29.88 in 10.0 mi Calm Calm - N/A   Scattered Clouds
1:55 AM 59.9 °F 57.2 °F 91% 29.87 in 10.0 mi Calm Calm - N/A   Scattered Clouds
2:15 AM 59.9 °F 57.6 °F 92% 29.87 in 10.0 mi Calm Calm - N/A   Scattered Clouds
2:34 AM 62.8 °F 58.1 °F 85% 29.87 in 10.0 mi WSW 3.5 mph - N/A   Clear
2:55 AM 64.6 °F 57.2 °F 77% 29.86 in 10.0 mi West 3.5 mph - N/A   Scattered Clouds
3:15 AM 65.1 °F 57.2 °F 75% 29.86 in 10.0 mi West 4.6 mph - N/A   Clear
3:35 AM 65.3 °F 56.8 °F 74% 29.86 in 10.0 mi West 6.9 mph - N/A   Clear
3:55 AM 65.5 °F 57.0 °F 74% 29.86 in 10.0 mi West 6.9 mph - N/A   Clear
4:15 AM 65.7 °F 57.2 °F 74% 29.86 in 10.0 mi WSW 8.1 mph - N/A   Scattered Clouds
4:35 AM 65.3 °F 57.2 °F 75% 29.86 in 10.0 mi WSW 8.1 mph - N/A   Scattered Clouds
4:55 AM 65.3 °F 57.2 °F 75% 29.87 in 10.0 mi West 9.2 mph - N/A   Clear
5:15 AM 65.3 °F 57.0 °F 75% 29.87 in 10.0 mi West 4.6 mph - N/A   Clear
5:35 AM 65.3 °F 57.2 °F 75% 29.88 in 10.0 mi West 5.8 mph - N/A   Mostly Cloudy
5:55 AM 64.9 °F 57.2 °F 76% 29.89 in 10.0 mi WNW 5.8 mph - N/A   Mostly Cloudy
6:14 AM 64.8 °F 57.2 °F 76% 29.90 in 10.0 mi WNW 5.8 mph - N/A   Overcast
6:35 AM 64.4 °F 56.8 °F 76% 29.90 in 10.0 mi WNW 4.6 mph - N/A   Overcast
6:55 AM 63.9 °F 56.8 °F 78% 29.91 in 10.0 mi NW 4.6 mph - N/A   Overcast
7:14 AM 63.5 °F 57.2 °F 80% 29.93 in 10.0 mi WNW 3.5 mph - N/A   Overcast
7:35 AM 63.1 °F 57.4 °F 81% 29.94 in 10.0 mi NW 4.6 mph - N/A   Overcast
7:55 AM 63.3 °F 57.0 °F 80% 29.95 in 10.0 mi North 6.9 mph - N/A   Overcast
8:15 AM 62.2 °F 56.1 °F 80% 29.96 in 10.0 mi North 6.9 mph - N/A   Overcast
8:35 AM 58.8 °F 52.3 °F 79% 29.98 in 10.0 mi NNE 6.9 mph - N/A   Overcast
8:55 AM 56.3 °F 49.3 °F 77% 30.00 in 10.0 mi NNE 4.6 mph 9.2 mph N/A   Overcast
9:15 AM 55.8 °F 48.0 °F 75% 30.01 in 10.0 mi North 8.1 mph - N/A   Overcast
9:35 AM 55.8 °F 47.7 °F 74% 30.02 in 10.0 mi North 5.8 mph - N/A   Overcast
9:55 AM 56.3 °F 48.0 °F 74% 30.02 in 10.0 mi North 6.9 mph - N/A   Overcast
10:15 AM 57.2 °F 47.5 °F 70% 30.03 in 10.0 mi NNE 5.8 mph - N/A   Overcast
10:35 AM 57.2 °F 46.8 °F 68% 30.03 in 10.0 mi NE 4.6 mph - N/A   Overcast
10:55 AM 58.8 °F 47.7 °F 66% 30.03 in 10.0 mi North 4.6 mph - N/A   Scattered Clouds
11:15 AM 59.7 °F 48.7 °F 67% 30.04 in 10.0 mi NNE 4.6 mph - N/A   Scattered Clouds
11:34 AM 59.5 °F 48.4 °F 67% 30.04 in 10.0 mi North 6.9 mph - N/A   Clear
11:55 AM 59.9 °F 47.8 °F 64% 30.05 in 10.0 mi North 6.9 mph - N/A   Clear
12:15 PM 60.3 °F 48.0 °F 64% 30.05 in 10.0 mi NNE 4.6 mph - N/A   Clear
12:35 PM 60.6 °F 47.5 °F 62% 30.06 in 10.0 mi NNE 4.6 mph - N/A   Clear
12:55 PM 61.0 °F 46.8 °F 59% 30.06 in 10.0 mi NE 3.5 mph - N/A   Clear
1:15 PM 61.0 °F 44.6 °F 55% 30.06 in 10.0 mi NNW 4.6 mph - N/A   Clear
1:35 PM 61.7 °F 44.4 °F 53% 30.05 in 10.0 mi NNW 5.8 mph - N/A   Clear
1:55 PM 62.6 °F 45.0 °F 52% 30.06 in 10.0 mi North 4.6 mph - N/A   Clear
2:15 PM 63.5 °F 45.0 °F 51% 30.05 in 10.0 mi Calm Calm - N/A   Clear
2:35 PM 64.0 °F 45.7 °F 51% 30.04 in 10.0 mi NW 5.8 mph - N/A   Clear
2:55 PM 64.6 °F 44.6 °F 48% 30.04 in 10.0 mi WNW 6.9 mph - N/A   Clear
3:14 PM 65.7 °F 43.5 °F 45% 30.04 in 10.0 mi NW 5.8 mph - N/A   Clear
3:35 PM 65.7 °F 44.2 °F 46% 30.04 in 10.0 mi NNW 4.6 mph - N/A   Clear
3:55 PM 66.4 °F 44.8 °F 46% 30.04 in 10.0 mi WNW 5.8 mph - N/A   Clear
4:14 PM 66.0 °F 44.6 °F 46% 30.04 in 10.0 mi NW 4.6 mph - N/A   Clear
4:35 PM 65.5 °F 45.7 °F 49% 30.04 in 10.0 mi WNW 9.2 mph - N/A   Clear
4:55 PM 65.1 °F 46.2 °F 50% 30.04 in 10.0 mi NW 8.1 mph - N/A   Clear
5:15 PM 62.8 °F 46.4 °F 55% 30.05 in 10.0 mi West 8.1 mph - N/A   Clear
5:35 PM 62.2 °F 46.2 °F 56% 30.04 in 10.0 mi WNW 6.9 mph - N/A   Clear
5:55 PM 61.7 °F 46.9 °F 58% 30.04 in 10.0 mi WNW 9.2 mph 16.1 mph N/A   Clear
6:15 PM 59.9 °F 46.4 °F 61% 30.05 in 10.0 mi WNW 8.1 mph 18.4 mph N/A   Clear
6:35 PM 58.6 °F 43.7 °F 58% 30.06 in 10.0 mi WNW 13.8 mph 20.7 mph N/A   Clear
6:55 PM 58.1 °F 44.8 °F 61% 30.06 in 10.0 mi WNW 9.2 mph 18.4 mph N/A   Clear
7:15 PM 57.0 °F 45.0 °F 64% 30.05 in 10.0 mi WNW 12.7 mph 18.4 mph N/A   Clear
7:35 PM 56.3 °F 44.1 °F 64% 30.06 in 10.0 mi WNW 10.4 mph 19.6 mph N/A   Clear
7:54 PM 55.6 °F 43.3 °F 63% 30.07 in 10.0 mi WNW 11.5 mph 18.4 mph N/A   Clear
8:15 PM 55.4 °F 42.6 °F 62% 30.07 in 10.0 mi NW 12.7 mph 21.9 mph N/A   Clear
8:35 PM 54.9 °F 42.3 °F 63% 30.08 in 10.0 mi WNW 8.1 mph 17.3 mph N/A   Clear
8:55 PM 54.7 °F 42.6 °F 64% 30.08 in 10.0 mi NW 9.2 mph 21.9 mph N/A   Clear
9:15 PM 54.0 °F 43.0 °F 66% 30.09 in 10.0 mi WNW 5.8 mph 20.7 mph N/A   Clear
9:35 PM 53.6 °F 44.1 °F 70% 30.11 in 10.0 mi NW 9.2 mph - N/A   Clear
9:55 PM 53.4 °F 44.6 °F 72% 30.10 in 10.0 mi NW 5.8 mph - N/A   Clear
10:15 PM 53.2 °F 44.6 °F 72% 30.11 in 10.0 mi WNW 8.1 mph - N/A   Clear
10:35 PM 53.2 °F 44.1 °F 71% 30.12 in 10.0 mi NNW 5.8 mph 17.3 mph N/A   Clear
10:55 PM 53.2 °F 43.7 °F 70% 30.12 in 10.0 mi NW 8.1 mph - N/A   Clear
11:15 PM 52.7 °F 44.6 °F 74% 30.12 in 10.0 mi NNW 5.8 mph - N/A   Clear
11:35 PM 52.7 °F 44.2 °F 73% 30.12 in 10.0 mi NNW 5.8 mph - N/A   Clear
11:55 PM 52.7 °F 44.6 °F 74% 30.13 in 10.0 mi NW 5.8 mph - N/A   Clear